Simultaneous Nadir Overpasses (SNOs) Predictions

Prediction of SNOs between AQUA and METOP-B Satellite Orbit:

Table of predicted SNOs for the next 14.0 days since TLE Epoch: 6/8/2013
Index Date (AQUA) Time (AQUA) Lat,Lon (AQUA) SZA (AQUA ) Date (METOP-B) Time (METOP-B) Lat,Lon (METOP-B) SZA (METOP-B ) Distance(km) Time Diff (sec)
1 06/09/2013 01:18:26 73.63, 155.17 50.68 06/09/2013 01:17:14 73.57, 154.72 50.65 15.63 72
2 06/09/2013 02:07:54 -73.76, -37.47 129.18 06/09/2013 02:07:51 -73.77, -37.49 129.18 0.79 3
3 06/09/2013 02:57:23 73.84, 129.99 50.90 06/09/2013 02:58:30 73.85, 130.03 50.90 1.67 67
4 06/11/2013 20:52:40 73.72,-138.57 50.57 06/11/2013 20:51:34 73.71,-138.55 50.58 1.03 66
5 06/11/2013 21:42:07 -73.79, 28.91 129.35 06/11/2013 21:42:13 -73.81, 29.01 129.34 3.70 6
6 06/11/2013 22:31:38 73.98,-163.87 50.85 06/11/2013 22:32:50 73.99,-163.23 50.83 19.72 72
7 06/14/2013 16:26:51 73.71, -72.12 50.42 06/14/2013 16:25:56 73.69, -72.18 50.41 2.99 55
8 06/14/2013 17:16:18 -73.79, 95.36 129.51 06/14/2013 17:16:35 -73.80, 95.39 129.50 1.26 17
9 06/14/2013 18:05:57 74.39, -98.37 51.14 06/14/2013 18:07:03 74.41, -95.74 51.08 78.77 66
10 06/17/2013 12:01:03 73.73, -5.70 50.34 06/17/2013 12:00:18 73.72, -5.70 50.35 0.66 45
11 06/17/2013 12:50:30 -73.80, 161.79 129.59 06/17/2013 12:50:58 -73.78, 161.76 129.61 2.26 28
12 06/20/2013 07:35:15 73.76, 60.68 50.34 06/20/2013 07:34:40 73.75, 60.76 50.33 2.89 35
13 06/20/2013 08:24:42 -73.83,-131.82 129.60 06/20/2013 08:25:20 -73.81,-131.76 129.62 2.71 38




NCC Satellite Simultaneous Nadir Overpasses (SNOs) Prediction Service
